Location: Kerguer�zec
(48.4509°N, 4.7600°W)
Time: 01:59:19
(UTC+00:00)

ERS-1 Rocket - Pass Details

Date: 09 April 2020
Orbit: 754 x 757 km, 98.5° (Epoch: 03 June)

Event Time Altitude Azimuth Distance (km) Brightness Sun altitude
Exits shadow 20:47:01 24° 95° (E) 1,525 4.1 -16.7°
Maximum altitude 20:48:38 29° 63° (ENE) 1,362 4.0 -17.0°
Drops below altitude 10° 20:52:55 10° 5° (N) 2,292 5.9 -17.5°
Sets 20:55:28 0° 354° (N) 3,222 6.9 -17.9°
